www.pogodaiklimat.ru

Погода и климат >> Архив погоды >> Бразилия >> Calcanhar


ПОГОДА в Calcanhar

  • Прогноз погоды в Calcanhar
  • Монитор погоды в Calcanhar
  • Климат города

АРХИВ ПОГОДЫ в Calcanhar

Время (UTC), дата Ветер
(напр.,м/с)
 
Видим.   Явления Облачность Т
(С)
Тd
(С)
f
(%)
Тe
(С)
Тes
(С)
Комфортность P
(гПа)
Po
(гПа)
Тmin
(С)
Tmax
(С)
R
(мм)
R24
(мм)
S
(см)
02 12.11 С 5
{6}
н/о н/о +27.0 +16.5 53 +31 +31 душно 1011.7 1010.6
01 12.11 С 3
{6}
н/о н/о +26.8 +15.2 49 +30 +30 душно 1012.2 1011.1
03 12.11 С 4
{7}
н/о н/о +26.7 +18.8 62 +32 +32 очень
душно
1011.2 1010.1
04 12.11 С 3
{6}
н/о н/о +26.6 +19.9 67 +33 +33 очень
душно
1010.9 1009.8
10 12.11 С 4
{6}
н/о н/о +28.3 -21.0 3 +24 +24 комфорт 1011.7 1010.6
11 12.11 С 4
{6}
н/о н/о +28.9 -13.2 6 +25 +25 комфорт 1012.4 1011.3
12 12.11 С 5
{7}
н/о н/о +29.6 -20.2 3 +25 +25 комфорт 1012.3 1011.2
13 12.11 С 5
{7}
н/о н/о +30.2 -19.6 3 +26 +26 жарко 1012.0 1010.9
14 12.11 С 5
{7}
н/о н/о +30.3 -18.8 3 +26 +26 жарко 1011.6 1010.5
15 12.11 С 5
{7}
н/о н/о +30.8 -19.3 3 +26 +26 жарко 1010.8 1009.7
16 12.11 С 5
{7}
н/о н/о +29.8 -20.0 3 +25 +25 комфорт 1010.2 1009.1
18 12.11 С 4
{6}
н/о н/о +28.7 -20.8 3 +24 +24 комфорт 1009.4 1008.3
20 12.11 С 4
{6}
н/о н/о +27.8 -21.4 3 +23 +23 комфорт 1010.0 1008.9
19 12.11 С 4
{6}
н/о н/о +27.9 -21.3 3 +24 +24 комфорт 1009.5 1008.4
21 12.11 С 5
{6}
н/о н/о +27.3 -9.0 9 +24 +24 комфорт 1010.5 1009.4
22 12.11 С 5
{6}
н/о н/о +27.1 +9.5 33 +27 +27 жарко 1011.1 1010.0
23 12.11 С 5
{6}
н/о н/о +27.0 +9.2 33 +27 +27 жарко 1011.9 1010.8
00 13.11 С 4
{6}
н/о н/о +27.1 +5.9 26 +26 +26 жарко 1012.2 1011.1
02 13.11 С 5
{6}
н/о н/о +27.0 +4.3 23 +26 +26 жарко 1012.2 1011.1
01 13.11 С 5
{6}
н/о н/о +27.2 -3.5 13 +24 +24 комфорт 1012.3 1011.2
03 13.11 С 4
{6}
н/о н/о +27.0 -3.5 13 +24 +24 комфорт 1011.6 1010.5
04 13.11 С 3
{6}
н/о н/о +26.6 +0.9 19 +25 +25 комфорт 1010.9 1009.8
05 13.11 С 3
{5}
н/о н/о +26.6 +9.0 33 +27 +27 жарко 1010.5 1009.4
11 13.11 С 5
{7}
н/о н/о +29.4 -20.3 3 +25 +25 комфорт 1012.2 1011.1
10 13.11 С 4
{6}
н/о н/о +28.7 -20.8 3 +24 +24 комфорт 1012.1 1011.0
12 13.11 С 5
{7}
н/о н/о +30.6 -19.5 3 +26 +26 жарко 1012.4 1011.3
13 13.11 С 5
{8}
н/о н/о +30.4 -19.6 3 +26 +26 жарко 1012.2 1011.1
14 13.11 С 6
{8}
н/о н/о +30.6 -19.5 3 +26 +26 жарко 1011.8 1010.7
15 13.11 С 5
{7}
н/о н/о +30.8 -19.3 3 +26 +26 жарко 1011.2 1010.1
17 13.11 С 5
{8}
н/о н/о +29.6 -20.2 3 +25 +25 комфорт 1009.7 1008.6
16 13.11 С 6
{7}
н/о н/о +30.4 -18.6 3 +26 +26 жарко 1010.1 1009.0
18 13.11 С 5
{7}
н/о н/о +29.2 -8.2 8 +25 +25 комфорт 1009.7 1008.6
19 13.11 С 5
{7}
н/о н/о +28.6 -20.9 3 +24 +24 комфорт 1009.7 1008.6
20 13.11 С 5
{7}
н/о н/о +27.8 -19.6 3 +23 +23 комфорт 1009.9 1008.8
21 13.11 С 4
{7}
н/о н/о +27.4 +3.4 21 +26 +26 жарко 1010.4 1009.3
23 13.11 С 5
{6}
н/о н/о +27.2 +6.3 26 +26 +26 жарко 1011.6 1010.5
22 13.11 С 5
{7}
н/о н/о +27.3 +5.9 26 +27 +27 жарко 1010.8 1009.7
00 14.11 С 5
{6}
н/о н/о +26.8 +5.2 25 +26 +26 жарко 1011.9 1010.8
01 14.11 С 5
{7}
н/о н/о +26.9 +3.4 22 +26 +26 жарко 1012.0 1010.9
02 14.11 С 4
{7}
н/о н/о +26.9 -8.4 9 +24 +24 комфорт 1011.4 1010.3
03 14.11 С 4
{6}
н/о н/о +26.7 -17.6 4 +23 +23 комфорт 1010.6 1009.5
05 14.11 С 4
{6}
н/о н/о +26.5 -8.7 9 +23 +23 комфорт 1010.1 1009.0
04 14.11 С 4
{6}
н/о н/о +26.6 -2.7 14 +24 +24 комфорт 1010.2 1009.1
06 14.11 С 5
{7}
н/о н/о +26.6 -22.2 3 +22 +22 комфорт 1010.1 1009.0
10 14.11 С 5
{7}
н/о н/о +28.4 -21.0 3 +24 +24 комфорт 1012.2 1011.1
11 14.11 С 5
{7}
н/о н/о +28.9 -20.6 3 +24 +24 комфорт 1013.2 1012.1
12 14.11 С 5
{7}
н/о н/о +29.9 -20.0 3 +25 +25 комфорт 1012.9 1011.8
14 14.11 С 5
{7}
н/о н/о +30.6 -19.5 3 +26 +26 жарко 1012.0 1010.9
13 14.11 С 5
{7}
н/о н/о +30.6 -19.5 3 +26 +26 жарко 1012.8 1011.7
15 14.11 С 5
{7}
н/о н/о +30.4 -19.6 3 +26 +26 жарко 1011.3 1010.2
16 14.11 С 5
{7}
н/о н/о +30.4 -19.6 3 +26 +26 жарко 1010.3 1009.2
17 14.11 С 5
{7}
н/о н/о +29.6 -20.2 3 +25 +25 комфорт 1009.6 1008.5
18 14.11 С 5
{7}
н/о н/о +28.3 -21.0 3 +24 +24 комфорт 1009.1 1008.0
20 14.11 С 4
{7}
н/о н/о +27.4 -21.6 3 +23 +23 комфорт 1009.5 1008.4
19 14.11 С 5
{7}
н/о н/о +27.9 -21.3 3 +24 +24 комфорт 1009.2 1008.1
21 14.11 С 5
{6}
н/о н/о +27.0 -21.9 3 +23 +23 комфорт 1009.8 1008.7
22 14.11 С 5
{8}
н/о н/о +27.1 -21.9 3 +23 +23 комфорт 1010.3 1009.2
23 14.11 С 5
{6}
н/о н/о +26.9 -22.0 3 +23 +23 комфорт 1010.9 1009.8
00 15.11 С 5
{7}
н/о н/о +27.1 -21.9 3 +23 +23 комфорт 1011.4 1010.3
02 15.11 С 5
{6}
н/о н/о +26.7 -22.1 3 +23 +23 комфорт 1010.7 1009.6
01 15.11 С 5
{6}
н/о н/о +26.8 -22.0 3 +23 +23 комфорт 1011.1 1010.0
03 15.11 С 4
{6}
н/о н/о +26.5 -22.3 3 +22 +22 комфорт 1010.0 1008.9
04 15.11 С 4
{6}
н/о н/о +26.6 -22.2 3 +22 +22 комфорт 1009.7 1008.6
05 15.11 С 4
{6}
н/о н/о +26.4 -22.3 3 +22 +22 комфорт 1009.6 1008.5
06 15.11 С 4
{6}
н/о н/о +26.2 -22.4 3 +22 +22 комфорт 1009.7 1008.6
07 15.11 С 3
{6}
н/о н/о +26.0 -22.6 3 +22 +22 комфорт 1010.4 1009.3
10 15.11 С 5
{7}
н/о н/о +27.7 -21.4 3 +23 +23 комфорт 1011.8 1010.7
11 15.11 С 5
{7}
н/о н/о +28.5 -20.9 3 +24 +24 комфорт 1012.7 1011.6
12 15.11 С 5
{6}
н/о н/о +29.4 -20.3 3 +25 +25 комфорт 1012.9 1011.8
13 15.11 С 5
{6}
н/о н/о +30.2 -19.7 3 +26 +26 жарко 1012.6 1011.5
14 15.11 С 5
{6}
н/о н/о +30.1 -19.8 3 +25 +25 комфорт 1012.5 1011.4
15 15.11 С 5
{6}
н/о н/о +30.0 -19.9 3 +25 +25 комфорт 1011.5 1010.4
16 15.11 С 4
{6}
н/о н/о +29.9 -20.0 3 +25 +25 комфорт 1010.7 1009.6
17 15.11 С 4
{6}
н/о н/о +29.4 -20.3 3 +25 +25 комфорт 1010.2 1009.1
18 15.11 С 4
{6}
н/о н/о +29.0 -20.6 3 +24 +24 комфорт 1010.1 1009.0
19 15.11 С 4
{6}
н/о н/о +28.2 -21.1 3 +24 +24 комфорт 1009.9 1008.8
20 15.11 С 4
{5}
н/о н/о +27.4 -21.6 3 +23 +23 комфорт 1010.3 1009.2
21 15.11 С 4
{6}
н/о н/о +27.1 -21.9 3 +23 +23 комфорт 1010.7 1009.6
22 15.11 С 4
{6}
н/о н/о +26.9 -22.0 3 +23 +23 комфорт 1011.4 1010.3
23 15.11 С 4
{6}
н/о н/о +26.8 -22.0 3 +23 +23 комфорт 1012.1 1011.0
00 16.11 С 4
{5}
н/о н/о +26.7 -22.1 3 +23 +23 комфорт 1012.5 1011.4
01 16.11 С 4
{6}
н/о н/о +26.7 -22.1 3 +23 +23 комфорт 1012.5 1011.4
02 16.11 С 5
{6}
н/о н/о +26.8 -22.0 3 +23 +23 комфорт 1012.3 1011.2
03 16.11 С 4
{6}
н/о н/о +26.6 -22.2 3 +22 +22 комфорт 1011.7 1010.6
04 16.11 С 4
{5}
н/о н/о +26.3 -22.4 3 +22 +22 комфорт 1011.1 1010.0
05 16.11 С 4
{5}
н/о н/о +26.4 -22.3 3 +22 +22 комфорт 1010.6 1009.5
06 16.11 С 4
{5}
н/о н/о +26.2 -22.4 3 +22 +22 комфорт 1010.8 1009.7
07 16.11 С 4
{5}
н/о н/о +26.2 -22.4 3 +22 +22 комфорт 1011.2 1010.1
11 16.11 С 4
{5}
н/о н/о +29.2 -20.4 3 +25 +25 комфорт 1013.9 1012.8
10 16.11 С 4
{5}
н/о н/о +27.9 -21.3 3 +24 +24 комфорт 1013.6 1012.5
12 16.11 С 4
{5}
н/о н/о +29.7 -20.1 3 +25 +25 комфорт 1013.9 1012.8
13 16.11 С 4
{5}
н/о н/о +29.3 -20.4 3 +25 +25 комфорт 1014.0 1012.9
14 16.11 С 4
{5}
н/о н/о +30.6 -19.5 3 +26 +26 жарко 1013.6 1012.5
15 16.11 С 4
{5}
н/о н/о +30.2 -19.7 3 +26 +26 жарко 1013.0 1011.9
17 16.11 С 4
{5}
н/о н/о +29.6 -20.1 3 +25 +25 комфорт 1011.8 1010.7
16 16.11 С 4
{5}
н/о н/о +30.0 -19.9 3 +25 +25 комфорт 1012.5 1011.4
18 16.11 С 4
{6}
н/о н/о +29.2 -20.5 3 +25 +25 комфорт 1011.4 1010.3
19 16.11 С 4
{6}
н/о н/о +28.4 -21.0 3 +24 +24 комфорт 1011.7 1010.6
20 16.11 С 4
{6}
н/о н/о +27.6 -21.5 3 +23 +23 комфорт 1012.1 1011.0
21 16.11 С 4
{6}
н/о н/о +27.1 -21.9 3 +23 +23 комфорт 1012.6 1011.5
23 16.11 С 4
{6}
н/о н/о +27.0 -21.9 3 +23 +23 комфорт 1013.4 1012.3
22 16.11 С 4
{6}
н/о н/о +26.8 -22.0 3 +23 +23 комфорт 1012.8 1011.7
00 17.11 С 5
{6}
н/о н/о +27.1 -16.0 5 +23 +23 комфорт 1013.6 1012.5
01 17.11 С 5
{7}
н/о н/о +26.8 -22.0 3 +23 +23 комфорт 1013.3 1012.2
02 17.11 С 4
{6}
н/о н/о +26.8 -22.1 3 +23 +23 комфорт 1013.0 1011.9
03 17.11 С 4
{6}
н/о н/о +26.7 -17.1 5 +23 +23 комфорт 1012.4 1011.3
05 17.11 С 3
{6}
н/о н/о +26.4 -22.3 3 +22 +22 комфорт 1011.5 1010.4
04 17.11 С 5
{6}
н/о н/о +26.7 -22.1 3 +23 +23 комфорт 1011.8 1010.7
10 17.11 С 4
{6}
н/о н/о +27.9 -21.3 3 +24 +24 комфорт 1013.5 1012.4
11 17.11 С 5
{7}
н/о н/о +29.2 -20.5 3 +25 +25 комфорт 1013.6 1012.5
12 17.11 С 5
{7}
н/о н/о +29.5 -20.2 3 +25 +25 комфорт 1013.7 1012.6
14 17.11 С 6
{7}
н/о н/о +30.8 -19.3 3 +26 +26 жарко 1013.0 1011.9
13 17.11 С 5
{7}
н/о н/о +30.2 -19.8 3 +26 +26 жарко 1013.4 1012.3
15 17.11 С 5
{7}
н/о н/о +30.3 -19.7 3 +26 +26 жарко 1012.2 1011.1
16 17.11 С 5
{7}
н/о н/о +30.7 -19.4 3 +26 +26 жарко 1011.5 1010.4
17 17.11 С 5
{7}
н/о н/о +29.5 -20.2 3 +25 +25 комфорт 1010.7 1009.6
18 17.11 С 5
{8}
н/о н/о +29.1 -20.5 3 +25 +25 комфорт 1010.7 1009.6
20 17.11 С 4
{7}
н/о н/о +27.6 -21.5 3 +23 +23 комфорт 1011.3 1010.2
19 17.11 С 5
{7}
н/о н/о +28.5 -20.9 3 +24 +24 комфорт 1010.8 1009.7
21 17.11 С 4
{7}
н/о н/о +27.1 -21.8 3 +23 +23 комфорт 1011.7 1010.6
22 17.11 С 4
{6}
н/о н/о +27.0 -21.9 3 +23 +23 комфорт 1012.2 1011.1
23 17.11 С 4
{6}
н/о н/о +27.0 -21.9 3 +23 +23 комфорт 1012.9 1011.8
00 18.11 С 4
{6}
н/о н/о +26.8 -22.0 3 +23 +23 комфорт 1013.1 1012.0
02 18.11 С 4
{7}
н/о н/о +27.0 -21.9 3 +23 +23 комфорт 1012.8 1011.7
01 18.11 С 4
{6}
н/о н/о +27.0 -21.9 3 +23 +23 комфорт 1013.4 1012.3
03 18.11 С 5
{7}
н/о н/о +26.8 -22.0 3 +23 +23 комфорт 1011.9 1010.8
10 18.11 С 3
{5}
н/о н/о +26.7 -22.1 3 +23 +23 комфорт 1012.3 1011.2
11 18.11 С 5
{8}
н/о н/о +28.9 -20.6 3 +24 +24 комфорт 1012.7 1011.6
12 18.11 С 6
{9}
н/о н/о +30.2 -19.7 3 +26 +26 жарко 1013.1 1012.0
14 18.11 С 6
{8}
н/о н/о +30.3 -19.7 3 +26 +26 жарко 1012.2 1011.1
13 18.11 С 6
{9}
н/о н/о +30.5 -19.6 3 +26 +26 жарко 1012.6 1011.5
15 18.11 С 6
{8}
н/о н/о +30.0 -19.9 3 +25 +25 комфорт 1011.6 1010.5
16 18.11 С 6
{8}
н/о н/о +30.2 -19.8 3 +26 +26 жарко 1010.8 1009.7
17 18.11 С 6
{9}
н/о н/о +30.0 -19.9 3 +25 +25 комфорт 1010.4 1009.3
18 18.11 С 6
{8}
н/о н/о +29.2 -20.5 3 +25 +25 комфорт 1010.2 1009.1
20 18.11 С 5
{8}
н/о н/о +27.7 -21.4 3 +23 +23 комфорт 1010.8 1009.7
19 18.11 С 5
{8}
н/о н/о +28.4 -20.9 3 +24 +24 комфорт 1010.3 1009.2
21 18.11 С 4
{8}
н/о н/о +27.2 -21.8 3 +23 +23 комфорт 1011.3 1010.2
22 18.11 С 4
{6}
н/о н/о +27.0 -21.9 3 +23 +23 комфорт 1012.1 1011.0
23 18.11 С 4
{7}
н/о н/о +26.9 -21.9 3 +23 +23 комфорт 1012.8 1011.7
00 19.11 С 4
{7}
н/о н/о +26.8 -22.1 3 +23 +23 комфорт 1012.9 1011.8

 

Местоположение метеостанции Calcanhar (Бразилия): широта -5.17 долгота -35.48 высота над уровнем моря 19 м.

В архиве по умолчанию представлена погода в Calcanhar за последнюю неделю. Архивные данные за месяц целиком и за предыдущие месяцы, начиная с января 2011 года, Вы можете получить, выбрав интересующий диапазон дат из раскрывающегося списка и нажав кнопку "Ввод!".


*Определитесь, кто Вы:
робот инопланетянин человек

Внимание! Время в таблицах - всемирное. Для получения местного времени необходимо прибавить поправку, которая в Calcanhar равна -3 ч.

Смотрите также архив погоды в соседних городах и на ближайших метеорологических станциях:

Погода в Natal (Бразилия) (80 км)
Погода в Natal (Бразилия) (87 км)
Погода в Macau (Бразилия) (128 км)
Погода в Santa Cruz (Бразилия) (133 км)
Погода в Macau (Бразилия) (137 км)
Погода в Camaratuba (Бразилия) (166 км)
Погода в Areia (Бразилия) (201 км)
Погода в Mossoro (Бразилия) (210 км)
Погода в Caico (Бразилия) (229 км)
Погода в Joao Pessoa (Бразилия) (231 км)

Пояснения к столбцам:

Ветер - указаны скорость ветра в м/с - средняя за 10 мин, порывы в срок и между сроками (в фигурных скобках) и направление, откуда дует ветер: С - северный, СВ - северо-восточный, В - восточный, ЮВ - юго-восточный, Ю - южный, ЮЗ - юго-западный, З - западный, СЗ - северо-западный.
Видимость - горизонтальная дальность видимости в метрах или километрах. При видимости от 1 до 10 км при отсутствии осадков обычно наблюдается дымка, при ухудшении видимости до 1 км и менее - туман. В сухую погоду видимость может ухудшаться дымом, пылью или мглою.
Явления - указаны атмосферные явления, наблюдавшиеся в срок или в последний час перед сроком; фигурными скобками обозначены явления, наблюдавшиеся между сроками (за 1-3 часа до срока); квадратными скобками обозначены град или гололедные отложения с указанием их диаметра в мм.
Облачность - указаны через наклонную черту общая и нижняя облачность в баллах и высота нижней границы облаков в метрах; квадратными скобками обозначены формы облаков: Ci - перистые, Cs - перисто-слоистые, Cc - перисто-кучевые, Ac - высококучевые, As - высокослоистые, Sc - слоисто-кучевые, Ns - слоисто-дождевые, Cu - кучевые, Cb - кучево-дождевые. Подробнее классификацию облаков см. в Атласе облаков (PDF).
T - Температура воздуха - температура, измеренная на высоте 2 м над землей.
Td - Температура точки росы - температура, при понижении до которой содержащийся в воздухе водяной пар достигнет насыщения.
f - Относительная влажность воздуха - влажноcть воздуха, измеренная на высоте 2 м над землей.
Te - Эффективная температура - температура, которую ощущает одетый по сезону человек в тени. Характеристика душности погоды. При расчете учитывается влияние влажности воздуха и скорости ветра на теплоощущения человека.
Tes - Эффективная температура на солнце - температура, которую ощущает человек, с поправкой на солнечный нагрев. Характеристика знойности погоды. Зависит от высоты солнца над горизонтом, облачности и скорости ветра. Ночью, в пасмурную погоду, а также при ветре 12 м/с и более поправка равна нулю.
P - Атмосферное давление - приведенное к уровню моря атмосферное давление.
Po - Атмосферное давление - измеренное на уровне метеостанции атмосферное давление.
Tmin - Минимальная температура - минимум температуры воздуха на высоте 2 м над землей.
Tmax - Максимальная температура - максимум температуры воздуха на высоте 2 м над землей.
R - Количество осадков - Количество выпавших осадков за период времени, мм. При наведении курсора мыши на число - период времени, за который выпало указанное количество осадков.
R24 - Количество осадков - Количество выпавших осадков за 24 часа, мм.
S - Снежный покров - Высота снежного покрова, см. При наведении курсора мыши на число - состояние снежного покрова и степень покрытия местности в баллах.